Regional Weather Roundup
Issued by NWS

Home | Current Version | Previous Version | Graphics & Text | Print | Product List | Glossary On
Versions: 1 2 3 4 5 6 7 8 9 10 11 12 13 14 15 16 17 18 19 20 21 22 23 24 25 26 27 28 29 30 31 32 33 34 35 36 37 38 39 40 41 42 43 44 45 46 47 48 49 50
000
ASUS43 KTOP 312008
RWRKS

WEATHER ROUNDUP FOR KANSAS
NATIONAL WEATHER SERVICE GOODLAND KS
300 PM CDT TUE MAY 31 2016

NOTE:  "FAIR" INDICATES FEW OR NO CLOUDS BELOW 12,000 FEET WITH NO
SIGNIFICANT WEATHER AND/OR OBSTRUCTIONS TO VISIBILITY.

KSZ001>006-013>018-027>032-041>047-312100-
NORTHWEST KANSAS

CITY           SKY/WX    TMP DP  RH WIND       PRES   REMARKS
GOODLAND       SUNNY     68  48  48 NE6       30.04F
HAYS           CLOUDY    72  54  53 N16       29.98F
HILL CITY      SUNNY     74  51  44 N9        30.00
RUSSELL        PTSUNNY   71  60  68 N16G22    29.96F
$$

KSZ061>065-074>080-084>089-312100-
SOUTHWEST KANSAS

CITY           SKY/WX    TMP DP  RH WIND       PRES   REMARKS
DODGE CITY     CLOUDY    69  60  73 NE16      29.99F
ELKHART          N/A     74  56  53 N7          N/A
GARDEN CITY    CLOUDY    74  55  51 N3        29.99F
GREAT BEND     CLOUDY    72  57  60 N13       29.96F
LIBERAL        PTSUNNY   72  55  56 E7        30.02F
PRATT          PTSUNNY   71  57  61 NE9       29.97R
$$

KSZ066>073-081>083-090>101-312100-
SOUTHEAST KANSAS

CITY           SKY/WX    TMP DP  RH WIND       PRES   REMARKS
CHANUTE        PTSUNNY   79  66  64 NW5       29.91R
COFFEYVILLE    MOSUNNY   78  68  71 S5        29.90S
HUTCHINSON     PTSUNNY   75  63  66 NE8       29.94R
MEDICINE LODGE   N/A     78  56  46 N8        29.93S
NEWTON         MOSUNNY   75  59  57 CALM      29.96S
PARSONS        PTSUNNY   79  66  64 CALM      29.92S
WICHITA INTL   CLOUDY    78  61  55 NE6       29.92S
WICHITA JABRA  MOSUNNY   76  64  66 VRB6      29.93S
WICHITA MCCONL CLOUDY    76  62  63 E9        29.93S
WINFIELD       PTSUNNY   79  63  57 N8        29.91F
$$

KSZ007>012-019>026-033>040-048>060-102>105-312100-
NORTHEAST KANSAS

CITY           SKY/WX    TMP DP  RH WIND       PRES   REMARKS
CONCORDIA      CLOUDY    73  60  63 NE12      29.95F
EMPORIA        SUNNY     77  61  57 NE6       29.92S
LAWRENCE       CLOUDY    76  63  64 S6        29.91S
MANHATTAN      PTSUNNY   79  60  52 NE9       29.91F
MARYSVILLE     CLOUDY    77  63  61 NW13      29.94S
OLATHE IND     CLOUDY    75  63  66 W5        29.92S
OLATHE EXE     PTSUNNY   75  62  64 W5        29.92R
SALINA         MOSUNNY   77  62  59 NE8       29.94F
TOPEKA BILLARD PTSUNNY   77  61  57 CALM      29.90F
TOPEKA FORBES  CLOUDY    79  61  53 CALM      29.91F
$$




USA.gov is the U.S. government's official web portal to all federal, state and local government web resources and services.